Find Kuiper-00226

NORAD ID: 67785 Int'l Des: 2026-030 Owner: KUIP Country: US Constellation: amazon-leo operational
LEOCIRCULAR

实时位置

正在加载3D地球...

关于 Kuiper-00226

正在加载描述...

即将过境

Passes for default location (London). Set your location on the main map for personalized predictions.

高度历史

Loading altitude history...

两行轨道根数

1 67785U 26030X 26133.37620959 -.00002443 00000-0 -85142-4 0 9999
2 67785 51.8871 271.5268 0017715 296.1439 63.7720 15.23951430 14970
Epoch: May 13, 2026 • Age: 31 hours

当前状态

高度 495.7 km
速度 7.62 km/s
星下点 -42.12°S, 104.3°E
发射日期 Feb 12, 2026
运行时间 0.2 years
类型 internet

技术详情

分类 Payload
质量 490.00 kg
干质量 490.00 kg
总质量 490.00 kg
长度 1.80 m
直径 0.70 m
跨度 5.00 m
形状 Box + 2 pan
制造商 KUIP
平台类型 Kuiper
阶段状态 In Orbit
所有者/国家 KUIP/US

Most Searched